Temperature
15 15 15 15 15 15 15 15 15 15 15 14 14 14 14 14 14 14 14 14 14 13 13 13 13 13 13 13 13 13 13 12 12 12 12 12 12 12 12 12 12 12 12
15 15 15 15 15 14 14 14 14 14 14 14 14 14 14 14 14 14 13 13 13 13 13 13 13 13 13 13 13 12 12 12 12 12 12 12 12 12 12 12 12 12 12
15 15 15 15 15 14 14 14 14 14 14 14 14 14 14 13 13 13 13 13 13 13 13 13 13 13 13 12 12 12 12 12 12 12 12 11 11 11 11 11 12 11 11
15 15 14 14 14 14 14 14 14 14 14 14 13 13 13 13 13 13 13 13 13 13 12 12 12 12 12 12 12 12 12 12 12 11 11 11 11 11 11 11 11 11 11
14 14 14 14 14 14 14 14 14 13 13 13 13 13 13 13 13 13 13 13 12 12 12 12 12 12 12 12 12 12 12 11 11 11 11 11 11 11 11 11 11 11 11
14 14 14 14 14 13 13 13 13 13 13 13 13 13 13 12 12 12 12 12 12 12 12 12 12 12 12 12 11 11 11 11 11 11 11 11 11 11 11 10 10 10 11
14 14 13 13 13 13 13 13 13 13 13 12 12 12 12 12 12 12 12 12 12 12 12 12 12 12 11 11 11 11 11 11 11 11 11 11 11 11 10 10 10 10 10
13 13 13 13 13 12 12 13 13 13 12 12 12 12 12 12 12 12 12 11 11 11 11 11 11 11 11 11 11 11 11 11 10 10 10 10 10 10 10 10 10 10 10
13 13 13 12 12 12 12 12 12 12 12 12 12 12 12 12 11 11 11 11 11 11 11 11 11 11 11 11 11 10 10 10 10 10 10 10 10 10 10 9 9 9 9
13 12 12 12 12 12 12 11 11 11 11 11 11 11 11 11 11 11 11 11 11 11 11 11 10 11 11 10 10 10 10 10 10 10 10 10 9 9 9 9 9 9 9
12 12 12 12 11 11 11 11 11 11 11 11 11 11 11 11 11 11 10 10 10 10 10 10 10 10 10 10 10 10 10 9 9 9 9 9 9 9 9 9 9 9 9
11 11 11 11 11 11 11 10 10 10 10 10 10 10 10 10 10 10 10 10 10 10 10 10 10 10 10 10 9 9 9 9 9 9 9 9 9 9 9 9 8 8 8
11 11 11 10 10 10 10 10 10 10 10 10 9 9 10 10 10 10 9 9 9 9 9 9 9 9 9 9 9 9 9 9 9 8 8 8 8 8 8 8 8 8 8
10 10 10 10 10 10 10 9 9 9 9 9 9 9 9 9 9 9 9 9 9 9 9 9 9 8 8 8 8 8 8 8 8 8 8 8 8 8 8 8 7 8 8
10 10 9 9 9 9 9 9 9 9 9 8 8 8 8 8 9 8 8 8 8 8 8 8 8 8 8 8 8 8 8 8 8 8 7 7 7 7 7 7 7 7 7
9 9 9 9 9 8 8 8 8 8 8 8 8 8 8 8 8 8 8 8 8 7 7 7 7 7 7 7 7 7 7 7 7 7 7 7 7 7 7 7 7 6 6
9 8 8 8 8 8 8 8 8 8 8 8 7 7 7 7 7 7 7 7 7 7 7 7 7 7 7 7 7 7 7 7 7 6 6 6 6 6 6 6 6 6 6
8 8 7 7 7 7 7 7 7 7 7 7 7 7 7 7 6 6 6 6 6 6 6 6 6 6 6 6 6 6 6 6 6 6 6 6 6 6 6 6 6 6 6
7 7 7 7 7 7 6 6 6 6 6 6 6 6 6 6 6 6 5 5 5 5 5 5 5 5 5 6 6 6 6 6 6 5 5 5 5 6 6 6 6 5 5
7 6 6 6 6 6 6 6 6 6 6 5 5 5 5 5 5 5 5 5 5 5 5 5 5 5 5 5 5 5 5 5 5 5 5 5 5 5 5 5 5 5 5
6 6 6 6 5 5 5 5 5 5 5 5 5 5 4 4 4 4 4 4 4 4 4 4 4 4 4 4 4 4 4 4 4 5 5 5 5 4 5 5 4 5 4
5 5 5 5 5 5 5 4 4 4 4 4 4 4 4 4 4 4 4 4 4 4 4 4 4 4 4 4 4 4 4 4 4 4 4 4 4 4 4 4 4 4 4
5 5 4 4 4 4 4 4 4 4 4 3 3 3 3 3 3 3 3 3 3 3 3 3 3 3 3 3 3 3 3 3 4 4 4 4 4 4 4 4 3 3 3
4 4 4 4 3 3 3 3 3 3 3 3 3 3 3 3 3 3 3 3 3 3 3 3 3 3 3 3 3 3 3 3 3 3 3 3 3 3 3 3 3 3 3
4 4 3 3 3 3 3 2 2 2 2 2 2 2 2 2 2 2 2 2 2 2 2 2 2 2 2 3 3 3 3 3 3 3 3 3 3 3 3 3 3 3 3
3 3 3 3 2 2 2 2 2 2 2 2 2 2 1 1 1 1 1 1 1 2 2 2 2 2 2 2 2 2 2 2 2 2 2 2 2 2 2 2 2 2 2
Wind_Speed
2 2 2 2 1 1 2 2 2 2 2 3 3 3 3 3 3 2 2 2 2 1 1 2 2 1 1 1 2 2 2 3 3 2 1 1 0 1 1 2 3 3 3
2 2 2 2 2 2 2 2 2 3 2 2 2 2 2 3 3 3 3 3 3 2 2 2 2 1 1 1 2 2 2 3 4 3 1 1 1 1 1 1 2 3 3
2 2 1 1 2 2 3 2 2 3 2 2 2 2 2 2 2 3 4 4 3 3 3 3 3 3 2 2 2 2 2 2 2 3 2 1 1 0 1 1 1 1 2
2 2 1 2 3 3 3 3 3 2 3 2 3 3 2 2 2 3 2 2 3 3 3 3 4 4 5 4 3 3 3 2 2 2 2 1 1 1 1 0 1 2 2
2 2 2 2 2 2 2 2 2 3 3 3 2 2 2 2 2 3 3 3 2 2 2 3 4 5 6 5 4 4 4 3 2 2 2 1 1 0 1 2 2 2 3
2 2 2 0 1 1 2 2 2 2 2 2 3 3 2 3 3 3 3 3 3 3 3 3 3 4 5 5 6 7 7 5 5 4 3 3 4 3 3 2 2 1 2
2 2 1 1 1 1 1 1 1 2 2 2 2 3 3 4 3 3 4 3 3 3 3 3 3 3 3 3 5 6 6 7 8 6 5 6 5 6 4 3 3 3 4
2 1 1 1 1 0 0 0 1 1 1 2 2 3 2 3 3 3 3 3 2 4 4 4 3 3 4 4 4 3 3 4 5 5 6 7 6 6 6 6 6 4 2
1 2 2 2 2 1 1 1 1 1 1 2 2 2 2 4 4 3 2 2 2 3 4 3 3 3 5 5 4 4 4 4 5 6 7 6 6 6 5 3 2 2 3
2 2 2 2 2 3 3 2 1 1 1 2 2 2 3 3 4 4 2 2 2 2 3 3 4 4 5 5 5 5 6 5 4 3 3 4 4 5 6 5 5 4 3
2 1 1 1 2 3 2 1 1 1 0 1 1 2 2 3 4 4 4 2 3 2 2 3 3 5 6 6 5 5 7 5 4 4 3 2 2 3 4 5 6 5 5
1 1 1 1 1 0 1 1 1 0 1 1 2 2 2 3 3 4 5 5 4 3 3 3 3 5 6 6 5 6 6 4 2 2 3 3 3 4 4 5 7 7 7
1 1 1 1 1 1 1 1 1 1 2 2 2 2 3 3 3 4 4 5 5 4 3 5 6 6 5 5 6 7 5 3 3 3 5 5 5 5 4 3 4 4 5
1 2 2 1 1 1 1 1 1 2 2 2 2 3 3 3 3 2 2 3 4 4 3 4 6 5 4 4 4 4 4 4 5 5 5 4 3 2 3 3 3 3 3
1 1 1 1 1 1 1 2 2 3 4 4 4 3 3 4 5 5 4 3 3 3 3 2 2 2 2 3 3 3 4 4 5 4 4 4 4 4 4 3 3 3 4
0 1 1 1 1 1 1 2 3 4 5 5 5 4 4 5 6 6 6 6 5 5 2 2 3 4 5 5 4 4 4 5 5 5 5 5 6 6 5 4 3 4 5
0 1 1 1 2 2 2 2 3 4 4 4 5 5 5 5 6 6 5 5 6 4 3 3 4 5 5 5 5 5 6 6 5 5 6 6 6 5 5 5 5 5 6
0 1 1 2 2 2 3 3 3 3 4 4 4 5 6 6 5 5 5 3 3 2 3 4 5 5 5 5 5 6 5 5 5 5 5 5 6 6 6 6 6 7 6
1 1 1 1 2 2 2 3 3 3 3 3 3 4 5 5 5 4 3 2 3 4 4 5 5 5 5 5 5 5 5 5 5 5 5 6 5 5 6 6 6 8 7
1 2 2 1 2 2 2 2 2 3 3 3 3 4 3 3 3 3 3 3 3 4 4 5 5 5 5 5 5 5 5 5 6 6 6 6 6 6 6 7 7 6 6
1 2 2 2 2 2 2 2 3 3 3 4 4 4 4 3 4 4 4 4 4 5 5 5 5 5 5 5 5 6 7 6 6 6 6 6 6 6 6 6 6 6 5
1 1 1 2 2 2 2 2 2 2 3 4 4 4 5 3 3 4 4 4 4 5 5 5 5 5 6 6 6 6 7 7 7 7 7 6 6 6 6 6 6 6 5
1 1 1 2 2 3 3 2 2 2 3 3 4 4 3 3 3 4 4 4 4 5 5 5 5 6 5 5 6 6 7 7 7 7 7 7 6 6 6 7 7 7 7
2 2 2 2 2 2 2 3 3 3 3 3 3 4 4 4 4 4 4 4 4 5 5 5 5 7 8 6 6 7 7 8 8 7 7 7 7 6 6 6 7 7 7
1 2 2 2 2 2 3 3 3 3 3 4 4 4 4 4 4 4 4 4 5 5 6 6 6 6 8 9 8 7 8 9 9 7 6 6 6 7 6 7 6 6 7
1 2 2 2 2 2 2 3 3 4 4 4 4 4 4 5 5 5 5 5 5 6 6 6 7 8 9 8 9 10 9 9 8 8 6 5 6 6 6 6 6 6 6
Wind_Direction
172 172 164 184 191 171 175 193 193 187 172 178 184 178 178 173 172 161 175 169 159 174 168 166 196 173 148 143 134 137 148 147 170 244 259 282 270 293 303 238 234 230 231
188 169 169 180 179 187 200 209 197 189 195 188 176 174 182 185 187 185 200 189 176 188 199 172 206 174 152 152 139 148 161 164 165 191 246 253 236 234 240 244 243 238 237
159 164 169 178 189 207 213 209 199 187 192 187 171 181 193 192 191 201 201 198 196 199 193 182 192 174 189 188 159 164 175 166 157 166 213 231 259 303 24 335 320 301 256
134 137 170 212 208 208 209 197 200 191 188 196 203 206 199 196 195 192 189 198 210 218 208 198 194 187 197 196 188 184 170 153 153 156 185 229 252 300 104 248 301 304 283
157 176 213 237 237 205 200 201 195 196 202 204 203 211 208 204 213 201 196 199 204 229 233 224 215 210 209 204 196 183 168 168 166 172 190 201 226 212 229 220 229 277 288
182 216 231 229 286 224 221 208 191 192 193 189 200 208 217 234 235 217 199 196 203 211 231 244 242 228 228 223 212 199 186 182 189 189 202 210 227 223 213 205 201 214 275
195 212 213 182 220 228 232 224 215 208 190 197 209 213 228 235 228 219 205 186 202 217 224 231 241 242 235 219 219 218 215 212 201 193 201 217 219 219 201 206 209 210 233
200 212 213 186 206 260 103 244 242 209 203 212 223 218 226 250 247 238 221 197 211 233 231 227 226 231 229 210 203 209 226 229 218 210 214 224 224 213 204 206 212 220 252
201 217 213 197 192 197 213 239 242 222 232 225 218 210 227 261 260 245 221 190 218 241 245 239 230 225 235 212 192 208 236 259 251 236 238 239 238 223 200 169 170 171 244
219 222 206 192 194 209 219 221 234 220 243 247 241 227 222 248 266 257 233 190 225 254 262 253 240 233 233 208 201 206 225 242 242 245 250 254 239 226 213 201 195 197 211
218 209 186 192 210 212 217 218 239 239 282 290 287 281 263 263 279 271 246 213 218 237 249 257 256 256 250 234 226 222 232 230 217 212 225 243 251 234 228 217 205 199 204
176 169 203 232 230 218 178 233 250 237 236 257 265 285 291 288 288 279 259 243 240 228 239 248 254 266 258 250 241 246 244 233 208 208 225 236 238 244 242 228 222 219 220
168 200 231 257 254 232 201 228 264 250 241 249 249 262 283 291 293 300 297 280 259 248 250 259 265 269 263 255 252 250 243 227 211 223 235 239 235 237 232 229 232 238 249
193 223 232 239 277 295 271 236 246 258 256 257 260 264 278 286 284 285 286 287 278 270 273 274 273 267 254 254 264 254 240 224 220 230 236 241 236 234 231 223 225 225 240
218 230 251 248 242 264 274 265 254 253 247 243 243 240 250 269 271 273 272 269 256 254 271 283 279 270 265 263 260 258 247 238 238 234 235 240 239 237 241 228 222 218 224
219 269 252 253 257 251 258 300 288 269 283 272 266 261 262 264 277 282 279 272 264 253 252 252 251 249 252 249 248 251 246 243 242 237 233 233 234 235 239 237 227 224 232
200 263 264 262 258 255 251 255 289 309 310 293 281 278 275 282 286 286 280 278 273 252 245 248 251 252 251 248 244 242 244 243 240 240 240 236 235 234 235 236 233 236 241
306 285 282 265 262 253 248 249 253 268 291 297 292 283 284 288 293 291 289 294 296 271 252 253 257 260 258 252 250 248 248 246 241 242 242 241 235 233 235 236 232 232 237
271 274 272 278 275 264 259 257 255 257 265 280 296 302 297 297 301 303 295 275 263 266 264 264 264 264 261 257 252 251 249 246 245 240 240 241 239 236 237 238 236 237 234
260 276 291 288 288 288 282 275 269 264 265 271 278 287 306 314 308 302 290 272 267 267 266 266 267 268 266 262 257 253 253 252 248 243 243 241 238 236 239 238 236 235 235
267 283 303 314 297 286 285 278 273 272 273 275 277 281 281 279 278 281 280 274 270 268 268 267 265 266 266 265 260 254 252 254 251 246 245 242 237 239 241 240 238 236 236
247 261 271 281 291 294 299 289 282 283 286 288 295 301 296 287 280 283 282 282 278 275 274 273 272 271 267 263 261 259 256 254 252 249 245 241 237 237 236 233 233 233 231
247 261 284 291 284 295 300 296 295 293 293 294 296 300 299 294 292 289 287 289 287 285 287 281 277 280 282 272 264 258 255 255 255 251 242 238 234 231 230 230 228 229 229
251 244 252 272 279 278 284 290 290 288 288 292 299 299 294 291 289 289 289 288 291 293 292 289 284 284 285 284 279 272 267 267 263 253 243 238 235 233 228 228 229 227 228
277 273 271 275 282 283 285 291 295 297 298 296 296 299 300 297 295 294 292 292 292 293 293 289 293 291 287 285 285 284 282 276 269 261 247 236 234 232 226 226 228 228 228
276 277 278 279 282 281 283 293 301 302 301 301 301 298 298 299 296 295 294 295 295 292 292 290 291 291 290 286 284 282 280 277 271 262 253 240 231 231 225 223 223 227 230
Height
1527 1528 1528 1528 1529 1529 1529 1529 1529 1529 1529 1529 1529 1529 1529 1529 1530 1530 1530 1530 1530 1531 1531 1531 1531 1531 1532 1532 1532 1533 1533 1533 1533 1533 1534 1534 1534 1533 1533 1533 1533 1532 1532
1525 1526 1526 1526 1526 1526 1526 1527 1527 1527 1527 1527 1527 1527 1527 1527 1527 1527 1528 1528 1528 1528 1529 1529 1529 1530 1530 1530 1530 1531 1531 1531 1531 1531 1532 1532 1532 1532 1532 1532 1531 1531 1531
1523 1524 1524 1524 1524 1523 1524 1524 1525 1525 1525 1525 1525 1525 1525 1525 1525 1525 1525 1526 1526 1526 1527 1527 1527 1527 1527 1528 1528 1528 1529 1529 1529 1529 1529 1530 1530 1530 1530 1530 1530 1530 1530
1521 1521 1521 1521 1521 1521 1521 1521 1522 1522 1522 1522 1523 1523 1523 1523 1523 1523 1523 1523 1524 1524 1524 1524 1525 1525 1525 1525 1525 1526 1526 1527 1527 1527 1527 1527 1527 1528 1528 1528 1528 1528 1527
1519 1518 1518 1518 1518 1518 1518 1519 1519 1519 1520 1520 1520 1520 1520 1520 1520 1520 1520 1521 1521 1521 1521 1521 1522 1522 1522 1523 1523 1523 1524 1524 1524 1524 1524 1524 1525 1525 1525 1525 1525 1525 1525
1516 1516 1515 1515 1515 1515 1516 1516 1516 1516 1517 1517 1517 1517 1517 1517 1518 1517 1517 1518 1518 1518 1518 1518 1518 1519 1519 1520 1520 1521 1521 1521 1521 1521 1521 1521 1521 1522 1522 1522 1522 1522 1521
1513 1513 1513 1512 1513 1512 1513 1513 1513 1513 1513 1514 1514 1514 1514 1514 1514 1514 1514 1515 1514 1514 1514 1514 1515 1515 1516 1516 1517 1517 1518 1518 1518 1519 1518 1518 1518 1519 1519 1519 1519 1519 1519
1511 1510 1510 1510 1509 1509 1510 1510 1510 1510 1510 1510 1511 1511 1511 1511 1511 1511 1511 1511 1511 1511 1511 1511 1511 1512 1512 1513 1513 1513 1514 1514 1514 1514 1515 1515 1515 1515 1515 1515 1515 1515 1516
1508 1507 1507 1507 1507 1507 1507 1507 1506 1507 1507 1507 1507 1507 1507 1508 1508 1508 1508 1507 1507 1507 1508 1508 1508 1508 1508 1509 1509 1509 1509 1510 1510 1510 1510 1511 1511 1511 1511 1511 1511 1511 1510
1504 1505 1504 1504 1504 1504 1504 1504 1504 1503 1503 1504 1504 1504 1504 1504 1505 1504 1504 1504 1503 1503 1504 1504 1504 1504 1504 1504 1504 1504 1504 1504 1505 1505 1506 1506 1506 1506 1506 1507 1507 1507 1506
1502 1502 1501 1501 1501 1501 1501 1501 1500 1500 1500 1500 1500 1501 1501 1501 1501 1501 1501 1500 1500 1499 1499 1499 1499 1499 1499 1499 1499 1499 1499 1500 1500 1500 1500 1500 1500 1501 1501 1502 1502 1502 1502
1499 1498 1498 1498 1498 1498 1497 1497 1497 1497 1497 1497 1497 1496 1497 1497 1497 1496 1496 1496 1496 1495 1494 1494 1494 1494 1494 1494 1494 1494 1495 1495 1495 1494 1494 1494 1495 1495 1496 1496 1497 1497 1497
1495 1495 1495 1495 1494 1494 1494 1494 1493 1493 1493 1493 1492 1491 1491 1492 1492 1492 1492 1492 1491 1491 1490 1490 1490 1489 1489 1489 1489 1489 1489 1489 1489 1489 1488 1489 1489 1490 1491 1491 1491 1492 1492
1492 1492 1492 1491 1491 1490 1490 1490 1489 1489 1488 1488 1487 1487 1486 1487 1487 1487 1486 1486 1486 1485 1485 1484 1484 1484 1484 1483 1483 1483 1483 1483 1483 1483 1483 1483 1484 1485 1485 1485 1485 1486 1486
1489 1488 1488 1488 1487 1487 1486 1486 1485 1485 1485 1484 1483 1483 1482 1482 1482 1482 1482 1481 1481 1480 1480 1479 1478 1478 1477 1477 1477 1477 1477 1478 1477 1477 1478 1478 1478 1479 1479 1479 1480 1480 1480
1485 1485 1484 1484 1483 1483 1482 1482 1481 1481 1480 1480 1480 1479 1478 1478 1478 1477 1477 1476 1476 1476 1475 1473 1472 1472 1471 1471 1471 1471 1471 1471 1471 1471 1471 1472 1472 1472 1473 1473 1474 1474 1474
1482 1481 1481 1480 1480 1479 1478 1477 1476 1476 1476 1475 1475 1474 1474 1473 1473 1472 1471 1471 1470 1470 1468 1467 1466 1466 1465 1465 1465 1465 1465 1465 1465 1465 1465 1465 1466 1466 1466 1467 1467 1468 1468
1479 1478 1478 1477 1476 1475 1474 1473 1472 1471 1470 1469 1469 1469 1469 1468 1467 1467 1466 1465 1464 1463 1462 1461 1460 1460 1459 1459 1459 1458 1458 1459 1459 1458 1458 1459 1459 1459 1459 1460 1461 1461 1461
1476 1475 1474 1473 1472 1471 1470 1469 1468 1467 1466 1465 1464 1464 1463 1463 1462 1461 1460 1459 1458 1457 1456 1455 1454 1454 1453 1452 1452 1452 1452 1451 1452 1452 1452 1452 1452 1452 1453 1453 1454 1454 1455
1473 1472 1471 1470 1468 1468 1467 1466 1464 1463 1462 1461 1460 1459 1458 1457 1456 1455 1455 1454 1452 1451 1450 1449 1448 1447 1446 1446 1445 1445 1444 1444 1444 1445 1445 1445 1445 1446 1446 1446 1447 1447 1448
1470 1469 1468 1467 1465 1464 1463 1461 1460 1459 1457 1456 1455 1455 1454 1453 1451 1450 1449 1448 1447 1445 1444 1443 1442 1440 1439 1439 1438 1438 1437 1437 1437 1437 1438 1438 1438 1438 1439 1439 1440 1440 1441
1467 1466 1465 1463 1462 1461 1459 1458 1456 1455 1453 1452 1451 1450 1449 1448 1446 1445 1443 1442 1441 1440 1438 1437 1435 1434 1433 1432 1431 1430 1430 1430 1430 1430 1430 1431 1431 1431 1432 1432 1432 1433 1434
1463 1462 1461 1460 1458 1457 1456 1454 1453 1451 1450 1448 1447 1445 1444 1443 1441 1439 1438 1436 1435 1433 1432 1430 1429 1427 1426 1425 1424 1423 1423 1422 1423 1423 1423 1423 1424 1424 1424 1425 1425 1426 1427
1460 1458 1457 1456 1455 1453 1452 1450 1449 1447 1446 1444 1442 1441 1439 1437 1436 1434 1432 1430 1429 1427 1426 1424 1422 1420 1419 1418 1417 1416 1415 1415 1415 1416 1416 1416 1416 1417 1417 1418 1418 1419 1420
1456 1455 1453 1452 1451 1450 1448 1447 1445 1444 1442 1440 1438 1436 1434 1432 1430 1428 1426 1425 1423 1421 1419 1417 1416 1414 1412 1411 1410 1409 1408 1408 1408 1408 1409 1409 1409 1409 1410 1410 1411 1412 1413
1452 1451 1450 1448 1447 1446 1444 1443 1441 1439 1438 1436 1434 1432 1430 1428 1425 1423 1421 1419 1417 1415 1413 1411 1409 1407 1406 1404 1403 1402 1402 1401 1402 1402 1402 1402 1402 1402 1403 1403 1404 1405 1407